This is the latest recevied weather packets stored in our database for station/object KN6ETB-1. If no packets are shown the sender has not sent any weather packets the latest 10 day(s).
| Time | Temp. | Humidity | Pressure | Rain* | Wind** | Luminosity | Snow |
|---|---|---|---|---|---|---|---|
| 1777389697 | 13.33° C | 79% | 1017.2 hPa | 0 mm | - | 202 W/m² | - |
| 1777389393 | 13.33° C | 79% | 1017.4 hPa | 0 mm | - | 189 W/m² | - |
| 1777389092 | 13.33° C | 80% | 1017.2 hPa | 0 mm | - | 170 W/m² | - |
| 1777388788 | 13.33° C | 80% | 1017.2 hPa | 0 mm | - | 172 W/m² | - |
| 1777388480 | 12.78° C | 81% | 1017.3 hPa | 0 mm | - | 156 W/m² | - |
| 1777388175 | 12.78° C | 81% | 1017.3 hPa | 0 mm | - | 152 W/m² | - |
| 1777387871 | 12.78° C | 81% | 1017 hPa | 0 mm | - | 129 W/m² | - |
| 1777387567 | 11.67° C | 82% | 1017.1 hPa | 0 mm | - | 123 W/m² | - |
| 1777387263 | 11.67° C | 83% | 1017 hPa | 0 mm | - | 107 W/m² | - |
| 1777386957 | 11.11° C | 83% | 1016.9 hPa | 0 mm | - | 95 W/m² | - |
| 1777386655 | 10.56° C | 84% | 1016.9 hPa | 0 mm | - | 85 W/m² | - |
| 1777386352 | 10.56° C | 85% | 1016.7 hPa | 0 mm | - | 78 W/m² | - |
| 1777386050 | 10° C | 86% | 1017 hPa | 0 mm | - | 65 W/m² | - |
| 1777385746 | 10° C | 87% | 1016.7 hPa | 0 mm | - | 54 W/m² | - |
| 1777385443 | 9.44° C | 88% | 1016.7 hPa | 0 mm | - | 46 W/m² | - |
| 1777385139 | 9.44° C | 89% | 1016.8 hPa | 0 mm | - | 38 W/m² | - |
| 1777384835 | 8.89° C | 90% | 1016.7 hPa | 0 mm | - | 34 W/m² | - |
| 1777384532 | 8.33° C | 90% | 1016.7 hPa | 0 mm | - | 30 W/m² | - |
| 1777384227 | 8.33° C | 91% | 1016.6 hPa | 0 mm | - | 18 W/m² | - |
| 1777383923 | 8.33° C | 91% | 1016.5 hPa | 0 mm | - | 15 W/m² | - |
| 1777383619 | 8.33° C | 91% | 1016.5 hPa | 0 mm | - | 13 W/m² | - |
| 1777383316 | 7.78° C | 92% | 1016.5 hPa | 0 mm | - | 10 W/m² | - |
| 1777383013 | 7.78° C | 92% | 1016.2 hPa | 0 mm | - | 7 W/m² | - |
| 1777382709 | 7.78° C | 92% | 1016.3 hPa | 0 mm | - | 5 W/m² | - |
| 1777382404 | 7.78° C | 91% | 1016.2 hPa | 0 mm | - | 2 W/m² | - |
* Rain latest hour (hover to see other rain measurements)
** Current wind speed in m/s (hover to see current wind gust speed)